Change the Weather History Date:

Sunday, March 24, 2013

  Actual Average Record
Temperature  
Mean Temperature 30 °F 41 °F  
Max Temperature 41 °F 53 °F 71 °F (2007)
Min Temperature 19 °F 30 °F -9 °F (1965)
Degree Days  
Heating Degree Days 35 24  
Month to date heating degree days 677 653  
Since 1 July heating degree days 5668 6022  
Cooling Degree Days 0 0  
Month to date cooling degree days 0 0  
Year to date cooling degree days 0 0  
Moisture  
Dew Point 16 °F    
Average Humidity 56    
Maximum Humidity 84    
Minimum Humidity 27    
Precipitation  
Precipitation T in 0.03 in 0.32 in (1899)
Month to date precipitation 0.54 0.74  
Year to date precipitation 2.00 2.29  
Snow  
Snow 0.00 in - - ()
Month to date snowfall 7.0  
Year to date snowfall 22.6  
Since 1 July snowfall 43.7  
Snow Depth 0.00 in    
Sea Level Pressure  
Sea Level Pressure 30.36 in    
Wind  
Wind Speed 2 mph (NNW)    
Max Wind Speed 8 mph    
Max Gust Speed 12 mph    
Visibility 10 miles    
Events Snow    
T = Trace of Precipitation, MM = Missing Value Source: NWS Daily Summary

Daily Weather History Graph

Daily Weather History Graph

Search for Another Location

Airport or City:

Trip Planner

Search our weather history database for the weather conditions in past years. The results will help you decide how hot, cold, wet, or windy it might be!

Date:

Astronomy

Mar. 24, 2013 Rise Set
Actual Time 7:30 AM MDT 7:55 PM MDT
Civil Twilight 7:00 AM MDT 8:25 PM MDT
Nautical Twilight 6:24 AM MDT 9:01 PM MDT
Astronomical Twilight 5:47 AM MDT 9:39 PM MDT
Moon 5:20 PM MDT (3/24) 5:52 AM MDT (3/24)
Length of Visible Light 13h 25m
Length of Day
12h 24m
Waxing Gibbous, 92% of the Moon is Illuminated
Mar 24
Waxing Gibbous
Mar 27
Full
Apr 2
Last Quarter
Apr 10
New
Apr 18
First Quarter

Hourly Weather History & Observations

Time (MDT) Temp. Windchill Dew Point Humidity Pressure Visibility Wind Dir Wind Speed Gust Speed Precip Events Conditions
12:53 AM 21.0 °F - 18.0 °F 88% 30.40 in 10.0 mi Calm Calm - N/A   Clear
1:53 AM 19.9 °F - 15.1 °F 81% 30.40 in 10.0 mi Calm Calm - N/A   Clear
2:27 AM 21.2 °F - 15.8 °F 80% 30.29 in 10.0 mi Calm Calm - N/A   Partly Cloudy
2:53 AM 19.9 °F - 15.1 °F 81% 30.40 in 10.0 mi Calm Calm - N/A   Partly Cloudy
3:36 AM 19.4 °F - 15.8 °F 86% 30.29 in 10.0 mi Calm Calm - N/A   Mostly Cloudy
3:53 AM 19.0 °F - 14.0 °F 81% 30.41 in 10.0 mi Calm Calm - N/A   Overcast
4:53 AM 21.9 °F - 17.1 °F 82% 30.41 in 10.0 mi Calm Calm - N/A   Overcast
5:53 AM 21.0 °F - 17.1 °F 85% 30.43 in 10.0 mi Calm Calm - N/A   Overcast
6:37 AM 21.2 °F - 17.6 °F 86% 30.32 in 10.0 mi Calm Calm - N/A   Overcast
6:53 AM 21.0 °F - 18.0 °F 88% 30.44 in 10.0 mi Calm Calm - N/A   Overcast
7:10 AM 21.2 °F - 17.6 °F 86% 30.32 in 10.0 mi Calm Calm - N/A   Overcast
7:53 AM 21.0 °F - 18.0 °F 88% 30.45 in 10.0 mi Calm Calm - N/A   Overcast
8:53 AM 23.0 °F - 18.0 °F 81% 30.45 in 10.0 mi Calm Calm - N/A   Overcast
9:53 AM 24.1 °F - 17.1 °F 75% 30.45 in 5.0 mi Calm Calm - 0.00 in Snow Light Snow
10:02 AM 24.8 °F - 17.6 °F 74% 30.34 in 8.0 mi Calm Calm - 0.00 in   Overcast
10:53 AM 28.0 °F - 18.0 °F 66% 30.45 in 10.0 mi Calm Calm - 0.00 in   Mostly Cloudy
11:00 AM 28.4 °F - 17.6 °F 64% 30.34 in 10.0 mi Calm Calm - N/A   Scattered Clouds
11:53 AM 28.9 °F 25.2 °F 19.0 °F 67% 30.45 in 10.0 mi South 3.5 mph - N/A   Scattered Clouds
12:53 PM 33.1 °F 28.7 °F 19.0 °F 56% 30.42 in 10.0 mi Variable 4.6 mph - N/A   Clear
1:53 PM 35.1 °F 30.1 °F 17.1 °F 48% 30.40 in 10.0 mi Variable 5.8 mph - N/A   Clear
2:53 PM 37.0 °F 33.3 °F 10.9 °F 34% 30.37 in 10.0 mi Variable 4.6 mph - N/A   Clear
3:53 PM 39.9 °F 36.7 °F 9.0 °F 28% 30.34 in 10.0 mi WNW 4.6 mph - N/A   Clear
4:53 PM 39.9 °F - 10.9 °F 31% 30.32 in 10.0 mi Calm Calm - N/A   Clear
5:53 PM 39.9 °F - 9.0 °F 28% 30.30 in 10.0 mi Calm Calm - N/A   Clear
6:53 PM 39.9 °F 36.7 °F 10.9 °F 31% 30.28 in 10.0 mi NW 4.6 mph - N/A   Clear
7:53 PM 36.0 °F 33.3 °F 14.0 °F 41% 30.27 in 10.0 mi Variable 3.5 mph - N/A   Clear
8:53 PM 34.0 °F 28.0 °F 14.0 °F 44% 30.27 in 10.0 mi North 6.9 mph - N/A   Clear
9:53 PM 30.0 °F 26.5 °F 15.1 °F 54% 30.29 in 10.0 mi NNW 3.5 mph - N/A   Clear
10:53 PM 30.0 °F - 16.0 °F 56% 30.28 in 10.0 mi Calm Calm - N/A   Clear
11:53 PM 24.8 °F 19.1 °F 15.8 °F 69% 30.18 in 10.0 mi NNW 4.6 mph - N/A   Clear